Back to catalog

COSMOS 1285 DEB

LostHEO
NORAD 33525·DEBRIS·🇷🇺 Russia

Launched Aug 4, 1981 from Plesetsk Cosmodrome

Loading…

Next Passes (next 24 hours)

TLE

StaleSource: Space-Track

Epoch: May 29, 2014, 08:59 UTC

1 33525U 81071AA  14149.37471953  .00000277  00000-0  00000+0 0  9998
2 33525  67.2335  99.5678 5692114  93.5524  15.1643  1.97639574 79979

Track COSMOS 1285 DEB in real time with AllMySat

Download on the App Store